AFR73CU LFPG-LIRN

Flight info

Callsign AFR73CU
Flight time N/A
Altitude 35000
Route OKASI DCT OKEKO DCT MOU DCT MADIV DCT MOKIP DCT TUFTA DCT KOGAS DCT MEDAM DCT NITAM DCT MOGBO DCT ELB DCT GILIO DCT MEDAL DCT RAVAL DCT LUNAK DCT ELVIN DCT RIFFI DCT PNZ
Aircraft A320/M-SDE3FGHIRWY/LB1

Departure

Time 2026-05-04 22:37
Airport Charles de Gaulle International Airport (LFPG)

Arrival

Time N/A
Airport Naples International Airport (LIRN)
Time Latitude Longitude Altitude Speed Heading
2026-05-04 21:44 49.01609 2.53859 359 ft 0 kts 170°
2026-05-04 22:16 49.01612 2.53859 359 ft 2 kts 170°
2026-05-04 22:17 49.01627 2.53854 359 ft 3 kts 170°
2026-05-04 22:17 49.01647 2.53849 359 ft 3 kts 170°
2026-05-04 22:17 49.01667 2.53844 359 ft 3 kts 170°
2026-05-04 22:17 49.01685 2.53839 359 ft 2 kts 170°
2026-05-04 22:18 49.01687 2.53839 359 ft 0 kts 170°
2026-05-04 22:23 49.01686 2.53839 359 ft 1 kts 170°
2026-05-04 22:23 49.01682 2.53831 359 ft 2 kts 258°
2026-05-04 22:24 49.01682 2.53793 359 ft 5 kts 259°
2026-05-04 22:24 49.01650 2.53740 359 ft 9 kts 218°
2026-05-04 22:24 49.01608 2.53697 359 ft 6 kts 211°
2026-05-04 22:24 49.01595 2.53655 359 ft 6 kts 259°
2026-05-04 22:25 49.01614 2.53583 359 ft 9 kts 310°
2026-05-04 22:25 49.01658 2.53488 359 ft 13 kts 295°
2026-05-04 22:25 49.01670 2.53354 359 ft 13 kts 268°
2026-05-04 22:25 49.01661 2.53194 359 ft 15 kts 266°
2026-05-04 22:26 49.01654 2.53050 359 ft 12 kts 265°
2026-05-04 22:26 49.01647 2.52924 359 ft 13 kts 265°
2026-05-04 22:26 49.01640 2.52806 359 ft 11 kts 265°
2026-05-04 22:26 49.01637 2.52726 359 ft 6 kts 273°
2026-05-04 22:27 49.01642 2.52699 359 ft 4 kts 298°
2026-05-04 22:27 49.01670 2.52659 359 ft 7 kts 321°
2026-05-04 22:27 49.01710 2.52584 359 ft 11 kts 294°
2026-05-04 22:27 49.01714 2.52451 359 ft 14 kts 264°
2026-05-04 22:28 49.01705 2.52304 359 ft 11 kts 264°
2026-05-04 22:28 49.01697 2.52175 359 ft 12 kts 265°
2026-05-04 22:28 49.01690 2.52050 359 ft 10 kts 265°
2026-05-04 22:28 49.01685 2.51948 359 ft 11 kts 265°
2026-05-04 22:29 49.01678 2.51828 359 ft 12 kts 265°
2026-05-04 22:29 49.01672 2.51692 359 ft 13 kts 265°
2026-05-04 22:29 49.01667 2.51603 359 ft 7 kts 265°
2026-05-04 22:29 49.01680 2.51533 359 ft 7 kts 335°
2026-05-04 22:30 49.01733 2.51523 359 ft 8 kts 359°
2026-05-04 22:30 49.01796 2.51521 359 ft 10 kts 355°
2026-05-04 22:30 49.01857 2.51485 359 ft 10 kts 320°
2026-05-04 22:30 49.01916 2.51443 359 ft 10 kts 356°
2026-05-04 22:31 49.01944 2.51448 359 ft 1 kts 16°
2026-05-04 22:31 49.01951 2.51453 359 ft 0 kts 28°
2026-05-04 22:34 49.01958 2.51459 359 ft 2 kts 32°
2026-05-04 22:34 49.01971 2.51476 359 ft 3 kts 48°
2026-05-04 22:34 49.01988 2.51510 359 ft 5 kts 53°
2026-05-04 22:34 49.02010 2.51554 359 ft 6 kts 53°
2026-05-04 22:35 49.02041 2.51608 359 ft 7 kts 39°
2026-05-04 22:35 49.02074 2.51659 359 ft 7 kts 77°
2026-05-04 22:35 49.02076 2.51685 359 ft 0 kts 87°
2026-05-04 22:36 49.02078 2.51733 359 ft 18 kts 86°
2026-05-04 22:36 49.02113 2.52372 359 ft 102 kts 86°
2026-05-04 22:36 49.02191 2.53825 361 ft 171 kts 85°
2026-05-04 22:37 49.02304 2.55723 949 ft 176 kts 84°
2026-05-04 22:37 49.02430 2.57561 1825 ft 177 kts 83°
2026-05-04 22:37 49.02574 2.59440 2595 ft 175 kts 83°
2026-05-04 22:37 49.02714 2.61264 3182 ft 175 kts 86°
2026-05-04 22:38 49.02740 2.63106 3592 ft 177 kts 92°
2026-05-04 22:38 49.02686 2.65027 3979 ft 187 kts 91°
2026-05-04 22:38 49.02773 2.67057 4424 ft 194 kts 83°
2026-05-04 22:38 49.02966 2.69097 4909 ft 198 kts 85°
2026-05-04 22:39 49.03057 2.71186 5415 ft 200 kts 88°
2026-05-04 22:39 49.03140 2.73372 5882 ft 208 kts 86°
2026-05-04 22:39 49.03272 2.75560 6351 ft 213 kts 86°
2026-05-04 22:39 49.03386 2.77846 6842 ft 219 kts 87°
2026-05-04 22:40 49.03465 2.80198 7378 ft 223 kts 88°
2026-05-04 22:40 49.03583 2.82614 7747 ft 238 kts 85°
2026-05-04 22:40 49.03759 2.85215 8080 ft 254 kts 83°
2026-05-04 22:40 49.03980 2.87977 8499 ft 268 kts 84°
2026-05-04 22:41 49.04153 2.90786 8950 ft 278 kts 86°
2026-05-04 22:41 49.04200 2.93802 9559 ft 283 kts 96°
2026-05-04 22:41 49.03686 2.96705 10161 ft 288 kts 116°
2026-05-04 22:41 49.02467 2.99179 10560 ft 301 kts 138°
2026-05-04 22:42 49.00601 3.00767 10837 ft 317 kts 165°
2026-05-04 22:42 48.98373 3.01117 11273 ft 326 kts 179°
2026-05-04 22:42 48.96091 3.01090 11883 ft 329 kts 180°
2026-05-04 22:42 48.93818 3.01043 12460 ft 333 kts 180°
2026-05-04 22:43 48.91509 3.00607 12959 ft 339 kts 199°
2026-05-04 22:43 48.89425 2.98886 13509 ft 342 kts 213°
2026-05-04 22:43 48.87470 2.96763 14250 ft 340 kts 215°
2026-05-04 22:43 48.85553 2.94698 14800 ft 342 kts 213°
2026-05-04 22:44 48.83575 2.92736 15311 ft 345 kts 211°
2026-05-04 22:44 48.81491 2.90823 15867 ft 346 kts 210°
2026-05-04 22:44 48.79405 2.88963 16418 ft 348 kts 210°
2026-05-04 22:44 48.77333 2.87101 16954 ft 349 kts 210°
2026-05-04 22:45 48.75239 2.85191 17486 ft 350 kts 211°
2026-05-04 22:45 48.71062 2.81335 18500 ft 352 kts 212°
2026-05-04 22:45 48.69000 2.79430 18975 ft 353 kts 212°
2026-05-04 22:46 48.66897 2.77498 19436 ft 355 kts 212°
2026-05-04 22:46 48.64775 2.75559 19867 ft 357 kts 212°
2026-05-04 22:46 48.62618 2.73593 20284 ft 359 kts 211°
2026-05-04 22:46 48.60501 2.71664 20697 ft 361 kts 211°
2026-05-04 22:47 48.58344 2.69694 21118 ft 362 kts 211°
2026-05-04 22:47 48.56182 2.67720 21525 ft 363 kts 211°
2026-05-04 22:47 48.54006 2.65737 21914 ft 365 kts 211°
2026-05-04 22:47 48.51847 2.63769 22292 ft 367 kts 211°
2026-05-04 22:48 48.49569 2.62022 22627 ft 370 kts 201°
2026-05-04 22:48 48.47053 2.61150 22950 ft 374 kts 185°
2026-05-04 22:48 48.44440 2.61168 23359 ft 376 kts 179°
2026-05-04 22:48 48.41828 2.61450 23712 ft 378 kts 177°
2026-05-04 22:49 48.39203 2.61779 24030 ft 380 kts 177°
2026-05-04 22:49 48.36544 2.62059 24352 ft 382 kts 179°
2026-05-04 22:49 48.33911 2.62258 24677 ft 383 kts 179°
2026-05-04 22:49 48.31213 2.62416 24999 ft 384 kts 180°
2026-05-04 22:50 48.28544 2.62816 25296 ft 388 kts 171°
2026-05-04 22:50 48.25950 2.64070 25593 ft 394 kts 159°
2026-05-04 22:50 48.23518 2.65853 25943 ft 395 kts 155°
2026-05-04 22:50 48.21090 2.67822 26243 ft 397 kts 155°
2026-05-04 22:51 48.18678 2.69811 26596 ft 396 kts 155°
2026-05-04 22:51 48.16243 2.71749 26933 ft 395 kts 156°
2026-05-04 22:51 48.13788 2.73625 27215 ft 396 kts 157°
2026-05-04 22:51 48.11309 2.75476 27473 ft 398 kts 157°
2026-05-04 22:52 48.08861 2.77302 27731 ft 399 kts 158°
2026-05-04 22:52 48.06323 2.79016 27933 ft 401 kts 160°
2026-05-04 22:52 48.01094 2.82350 28082 ft 413 kts 161°
2026-05-04 22:53 47.95718 2.85739 28215 ft 425 kts 160°
2026-05-04 22:53 47.90199 2.89261 28340 ft 436 kts 160°
2026-05-04 22:54 47.84584 2.92808 28628 ft 441 kts 160°
2026-05-04 22:54 47.81761 2.94584 28996 ft 438 kts 160°
2026-05-04 22:54 47.78962 2.96354 29371 ft 435 kts 160°
2026-05-04 22:55 47.76202 2.98099 29675 ft 434 kts 160°
2026-05-04 22:55 47.73440 2.99839 29975 ft 432 kts 160°
2026-05-04 22:55 47.70669 3.01581 30231 ft 432 kts 160°
2026-05-04 22:55 47.67896 3.03320 30404 ft 433 kts 160°
2026-05-04 22:56 47.65097 3.05070 30598 ft 434 kts 160°
2026-05-04 22:56 47.62311 3.06813 30829 ft 434 kts 160°
2026-05-04 22:56 47.59542 3.08548 31088 ft 433 kts 160°
2026-05-04 22:56 47.56770 3.10288 31310 ft 433 kts 160°
2026-05-04 22:57 47.53979 3.12034 31528 ft 433 kts 160°
2026-05-04 22:57 47.51207 3.13762 31743 ft 433 kts 160°
2026-05-04 22:57 47.48415 3.15493 31953 ft 433 kts 160°
2026-05-04 22:57 47.45700 3.17176 32153 ft 433 kts 160°
2026-05-04 22:58 47.42880 3.18925 32355 ft 433 kts 160°
2026-05-04 22:58 47.40101 3.20649 32551 ft 434 kts 160°
2026-05-04 22:58 47.37331 3.22369 32742 ft 434 kts 160°
2026-05-04 22:58 47.34534 3.24104 32922 ft 434 kts 160°
2026-05-04 22:59 47.31768 3.25818 33107 ft 434 kts 161°
2026-05-04 22:59 47.29007 3.27524 33299 ft 433 kts 161°
2026-05-04 22:59 47.26177 3.29269 33471 ft 434 kts 161°
2026-05-04 22:59 47.23436 3.30956 33639 ft 434 kts 161°
2026-05-04 23:00 47.20646 3.32674 33805 ft 434 kts 161°
2026-05-04 23:00 47.17857 3.34389 33947 ft 434 kts 161°
2026-05-04 23:00 47.15071 3.36098 34098 ft 434 kts 161°
2026-05-04 23:00 47.12288 3.37799 34250 ft 434 kts 161°
2026-05-04 23:01 47.09489 3.39511 34453 ft 432 kts 161°
2026-05-04 23:01 47.06761 3.41188 34646 ft 431 kts 161°
2026-05-04 23:01 47.03993 3.42882 34773 ft 431 kts 161°
2026-05-04 23:01 47.01192 3.44592 34880 ft 431 kts 161°
2026-05-04 23:02 46.95676 3.47965 34941 ft 432 kts 161°
2026-05-04 23:02 46.90101 3.51349 34937 ft 432 kts 161°
2026-05-04 23:03 46.84558 3.54707 34939 ft 433 kts 161°
2026-05-04 23:03 46.79007 3.58089 34939 ft 433 kts 160°
2026-05-04 23:04 46.73843 3.62780 34934 ft 445 kts 142°
2026-05-04 23:04 46.70009 3.70012 34940 ft 460 kts 122°
2026-05-04 23:05 46.67899 3.78862 34948 ft 471 kts 108°
2026-05-04 23:05 46.66421 3.88198 34940 ft 474 kts 108°
2026-05-04 23:06 46.64854 3.97560 34908 ft 475 kts 110°
2026-05-04 23:06 46.63179 4.06855 34942 ft 476 kts 110°
2026-05-04 23:07 46.61553 4.16201 34983 ft 477 kts 109°
2026-05-04 23:07 46.59941 4.25561 34984 ft 476 kts 109°
2026-05-04 23:08 46.58305 4.34807 34980 ft 475 kts 110°
2026-05-04 23:08 46.56921 4.42594 34980 ft 474 kts 110°
2026-05-04 23:09 46.55276 4.51832 34962 ft 474 kts 110°
2026-05-04 23:09 46.53625 4.61130 34920 ft 475 kts 110°
2026-05-04 23:10 46.51955 4.70420 34896 ft 475 kts 110°
2026-05-04 23:10 46.50273 4.79719 34893 ft 476 kts 110°
2026-05-04 23:11 46.48587 4.89043 34894 ft 479 kts 110°
2026-05-04 23:11 46.46890 4.98356 34897 ft 481 kts 110°
2026-05-04 23:12 46.45166 5.07727 34904 ft 483 kts 110°
2026-05-04 23:12 46.43431 5.17153 34939 ft 484 kts 110°
2026-05-04 23:13 46.41689 5.26622 34994 ft 484 kts 110°
2026-05-04 23:13 46.39940 5.36054 35000 ft 485 kts 110°
2026-05-04 23:14 46.37309 5.44850 35021 ft 467 kts 131°
2026-05-04 23:14 46.33120 5.51852 35014 ft 462 kts 139°
2026-05-04 23:15 46.28822 5.58817 35012 ft 464 kts 136°
2026-05-04 23:15 46.24686 5.65957 35027 ft 464 kts 136°
2026-05-04 23:16 46.20530 5.73031 35024 ft 463 kts 136°
2026-05-04 23:16 46.16339 5.80051 35024 ft 463 kts 136°
2026-05-04 23:17 46.12118 5.87112 34990 ft 463 kts 136°
2026-05-04 23:17 46.07902 5.94138 34982 ft 462 kts 136°
2026-05-04 23:18 46.03696 6.01158 34946 ft 463 kts 136°
2026-05-04 23:18 45.99516 6.08141 34947 ft 463 kts 136°
2026-05-04 23:19 45.95287 6.15157 34944 ft 464 kts 136°
2026-05-04 23:19 45.91052 6.22177 34946 ft 465 kts 136°
2026-05-04 23:20 45.86799 6.29180 34955 ft 465 kts 136°
2026-05-04 23:20 45.82577 6.36152 34982 ft 465 kts 136°
2026-05-04 23:21 45.77846 6.42279 35035 ft 454 kts 149°
2026-05-04 23:21 45.72643 6.47436 35038 ft 454 kts 151°
2026-05-04 23:22 45.67421 6.52599 35042 ft 457 kts 149°
2026-05-04 23:22 45.62273 6.57879 35039 ft 458 kts 149°
2026-05-04 23:23 45.57069 6.63184 35038 ft 458 kts 149°
2026-05-04 23:23 45.51885 6.68411 35038 ft 459 kts 149°
2026-05-04 23:24 45.46661 6.73671 35039 ft 460 kts 149°
2026-05-04 23:24 45.41422 6.78932 35015 ft 461 kts 149°
2026-05-04 23:25 45.36215 6.84131 35006 ft 460 kts 149°
2026-05-04 23:25 45.30956 6.89418 35043 ft 459 kts 149°
2026-05-04 23:26 45.25837 6.94754 35042 ft 461 kts 143°
2026-05-04 23:26 45.21184 7.01055 35046 ft 463 kts 140°
2026-05-04 23:27 45.16618 7.07505 35039 ft 462 kts 140°
2026-05-04 23:27 45.12037 7.13810 35028 ft 461 kts 140°
2026-05-04 23:28 45.07946 7.20806 35050 ft 466 kts 129°
2026-05-04 23:28 45.04302 7.28369 35046 ft 466 kts 128°
2026-05-04 23:29 45.00605 7.35959 35037 ft 465 kts 130°
2026-05-04 23:29 44.96574 7.43062 35009 ft 461 kts 139°
2026-05-04 23:30 44.92017 7.49441 35017 ft 461 kts 141°
2026-05-04 23:30 44.87409 7.55722 35034 ft 464 kts 140°
2026-05-04 23:31 44.82833 7.62149 35038 ft 467 kts 140°
2026-05-04 23:31 44.78209 7.68647 35069 ft 469 kts 140°
2026-05-04 23:32 44.73558 7.75054 35118 ft 470 kts 140°
2026-05-04 23:32 44.68877 7.81524 35132 ft 473 kts 141°
2026-05-04 23:33 44.64183 7.88021 35131 ft 474 kts 141°
2026-05-04 23:33 44.59458 7.94521 35125 ft 476 kts 141°
2026-05-04 23:34 44.54704 8.01060 35105 ft 477 kts 141°
2026-05-04 23:34 44.49956 8.07565 35101 ft 477 kts 141°
2026-05-04 23:35 44.45220 8.14014 35104 ft 476 kts 141°
2026-05-04 23:35 44.40487 8.20475 35088 ft 476 kts 141°
2026-05-04 23:36 44.35738 8.26959 35082 ft 475 kts 141°
2026-05-04 23:36 44.30985 8.33410 35076 ft 475 kts 141°
2026-05-04 23:37 44.26247 8.39816 35034 ft 476 kts 141°
2026-05-04 23:37 44.21485 8.46250 35004 ft 476 kts 141°
2026-05-04 23:38 44.16746 8.52644 34997 ft 476 kts 141°
2026-05-04 23:38 44.11971 8.59059 35048 ft 475 kts 141°
2026-05-04 23:39 44.07219 8.65444 35077 ft 474 kts 141°
2026-05-04 23:39 44.02491 8.71780 35078 ft 474 kts 141°
2026-05-04 23:40 43.97726 8.78116 35072 ft 474 kts 141°
2026-05-04 23:40 43.92954 8.84484 35045 ft 475 kts 141°
2026-05-04 23:41 43.88192 8.90830 35010 ft 475 kts 141°
2026-05-04 23:41 43.83427 8.97142 34994 ft 475 kts 141°
2026-05-04 23:42 43.78643 9.03437 34985 ft 476 kts 141°
2026-05-04 23:42 43.73831 9.09801 35006 ft 475 kts 141°
2026-05-04 23:43 43.69086 9.16082 35028 ft 474 kts 141°
2026-05-04 23:43 43.64281 9.22368 35009 ft 476 kts 142°
2026-05-04 23:44 43.59486 9.28644 34965 ft 478 kts 142°
2026-05-04 23:44 43.54654 9.34977 34971 ft 481 kts 142°
2026-05-04 23:45 43.49757 9.41361 34985 ft 484 kts 142°
2026-05-04 23:45 43.44886 9.47698 34985 ft 487 kts 142°
2026-05-04 23:46 43.39925 9.54155 35008 ft 489 kts 142°
2026-05-04 23:46 43.35001 9.60562 35052 ft 490 kts 142°
2026-05-04 23:47 43.29984 9.67029 35100 ft 491 kts 142°
2026-05-04 23:47 43.24996 9.73439 35096 ft 490 kts 142°
2026-05-04 23:48 43.20964 9.78676 35078 ft 481 kts 143°
2026-05-04 23:48 43.16010 9.85009 35071 ft 487 kts 142°
2026-05-04 23:49 43.10246 9.92367 35067 ft 487 kts 142°
2026-05-04 23:49 43.05342 9.98653 35066 ft 486 kts 142°
2026-05-04 23:50 43.01173 10.03962 35065 ft 487 kts 142°
2026-05-04 23:50 42.96208 10.10277 35064 ft 488 kts 142°
2026-05-04 23:51 42.91244 10.16573 35062 ft 488 kts 142°
2026-05-04 23:51 42.86255 10.22888 35062 ft 488 kts 142°
2026-05-04 23:52 42.81315 10.29132 35061 ft 489 kts 142°
2026-05-04 23:52 42.76258 10.35494 35070 ft 495 kts 142°
2026-05-04 23:53 42.71315 10.42038 35066 ft 494 kts 138°
2026-05-04 23:53 42.66625 10.48915 35068 ft 496 kts 137°
2026-05-04 23:54 42.62005 10.55776 35066 ft 492 kts 137°
2026-05-04 23:54 42.57328 10.62571 35065 ft 492 kts 137°
2026-05-04 23:55 42.52652 10.69359 35063 ft 493 kts 137°
2026-05-04 23:56 42.45648 10.79571 35054 ft 496 kts 137°
2026-05-04 23:56 42.40921 10.86415 35044 ft 499 kts 137°
2026-05-04 23:57 42.36157 10.93282 35042 ft 499 kts 137°
2026-05-04 23:57 42.31401 11.00161 35031 ft 499 kts 137°
2026-05-04 23:58 42.26682 11.06947 35007 ft 498 kts 137°
2026-05-04 23:58 42.21944 11.13750 35038 ft 496 kts 137°
2026-05-04 23:59 42.17204 11.20552 35046 ft 495 kts 137°
2026-05-04 23:59 42.12500 11.27267 35027 ft 496 kts 137°
2026-05-05 00:00 42.07751 11.34038 35030 ft 497 kts 137°
2026-05-05 00:00 42.02991 11.40842 35015 ft 500 kts 137°
2026-05-05 00:01 41.98183 11.47661 35045 ft 502 kts 137°
2026-05-05 00:01 41.93402 11.54426 35104 ft 503 kts 137°
2026-05-05 00:02 41.88580 11.61238 35158 ft 504 kts 137°
2026-05-05 00:02 41.83757 11.68033 35173 ft 500 kts 137°
2026-05-05 00:03 41.79000 11.74742 35160 ft 497 kts 137°
2026-05-05 00:03 41.74219 11.81489 35154 ft 498 kts 137°
2026-05-05 00:04 41.69428 11.88249 35150 ft 501 kts 137°
2026-05-05 00:04 41.64838 11.94672 35150 ft 501 kts 137°
2026-05-05 00:05 41.60028 12.01313 35160 ft 501 kts 137°
2026-05-05 00:05 41.55200 12.08032 35163 ft 501 kts 137°
2026-05-05 00:06 41.50363 12.14758 35162 ft 502 kts 137°
2026-05-05 00:06 41.46312 12.20341 35163 ft 503 kts 137°
2026-05-05 00:07 41.41433 12.27083 35153 ft 506 kts 137°
2026-05-05 00:07 41.35733 12.34945 35092 ft 506 kts 137°
2026-05-05 00:07 41.33308 12.38275 34758 ft 505 kts 137°
2026-05-05 00:08 41.30828 12.41682 34480 ft 501 kts 137°
2026-05-05 00:08 41.28406 12.45008 34211 ft 502 kts 137°
2026-05-05 00:08 41.25981 12.48333 33941 ft 504 kts 137°
2026-05-05 00:08 41.23552 12.51658 33671 ft 504 kts 137°
2026-05-05 00:09 41.21106 12.55002 33400 ft 505 kts 137°
2026-05-05 00:09 41.18653 12.58354 33127 ft 503 kts 137°
2026-05-05 00:09 41.16209 12.61687 32858 ft 503 kts 137°
2026-05-05 00:09 41.13763 12.65014 32588 ft 504 kts 137°
2026-05-05 00:10 41.11314 12.68342 32318 ft 505 kts 137°
2026-05-05 00:10 41.08863 12.71678 32049 ft 505 kts 137°
2026-05-05 00:10 41.06432 12.74994 31781 ft 506 kts 137°
2026-05-05 00:10 41.03974 12.78344 31510 ft 506 kts 137°
2026-05-05 00:11 41.01517 12.81683 31241 ft 507 kts 137°
2026-05-05 00:11 40.99052 12.85022 30971 ft 507 kts 137°
2026-05-05 00:11 40.96580 12.88365 30662 ft 507 kts 137°
2026-05-05 00:11 40.94154 12.91694 30093 ft 508 kts 135°
2026-05-05 00:12 40.91959 12.95461 29352 ft 511 kts 124°
2026-05-05 00:12 40.90314 12.99623 28609 ft 510 kts 112°
2026-05-05 00:12 40.89242 13.03993 27779 ft 510 kts 104°
2026-05-05 00:12 40.88350 13.08623 27191 ft 510 kts 103°
2026-05-05 00:13 40.87484 13.13102 26529 ft 509 kts 104°
2026-05-05 00:13 40.86546 13.17618 25768 ft 506 kts 105°
2026-05-05 00:13 40.85557 13.22078 24900 ft 502 kts 106°
2026-05-05 00:13 40.84894 13.25003 24258 ft 502 kts 106°
2026-05-05 00:14 40.83898 13.29434 23218 ft 502 kts 105°
2026-05-05 00:14 40.82933 13.33836 22410 ft 497 kts 105°
2026-05-05 00:14 40.82007 13.38156 21704 ft 490 kts 105°
2026-05-05 00:14 40.81083 13.42495 21016 ft 482 kts 105°
2026-05-05 00:15 40.80169 13.46736 20272 ft 477 kts 106°
2026-05-05 00:15 40.79253 13.50911 19464 ft 473 kts 107°
2026-05-05 00:15 40.78352 13.54978 18759 ft 460 kts 107°
2026-05-05 00:15 40.77460 13.58990 17987 ft 446 kts 107°
2026-05-05 00:16 40.76607 13.62854 17235 ft 434 kts 107°
2026-05-05 00:16 40.75520 13.67871 16507 ft 413 kts 104°
2026-05-05 00:16 40.75190 13.71497 16166 ft 395 kts 87°
2026-05-05 00:16 40.75691 13.74929 15890 ft 375 kts 67°
2026-05-05 00:17 40.76915 13.77892 15610 ft 357 kts 55°
2026-05-05 00:17 40.78275 13.80579 15362 ft 342 kts 54°
2026-05-05 00:17 40.79568 13.83098 15160 ft 327 kts 54°
2026-05-05 00:17 40.80786 13.85563 14974 ft 313 kts 56°
2026-05-05 00:18 40.81926 13.87947 14797 ft 300 kts 56°
2026-05-05 00:18 40.83038 13.90315 14562 ft 308 kts 56°
2026-05-05 00:18 40.84169 13.92739 14301 ft 310 kts 56°
2026-05-05 00:18 40.85291 13.95140 14041 ft 307 kts 57°
2026-05-05 00:19 40.86382 13.97538 13777 ft 301 kts 57°
2026-05-05 00:19 40.87438 13.99894 13515 ft 295 kts 57°
2026-05-05 00:19 40.88474 14.02202 13252 ft 289 kts 57°
2026-05-05 00:19 40.89510 14.04492 12986 ft 283 kts 57°
2026-05-05 00:20 40.90500 14.06666 12730 ft 280 kts 57°
2026-05-05 00:20 40.91508 14.08885 12467 ft 279 kts 57°
2026-05-05 00:20 40.92508 14.11080 12206 ft 277 kts 57°
2026-05-05 00:20 40.93504 14.13259 11946 ft 276 kts 58°
2026-05-05 00:21 40.94472 14.15416 11688 ft 274 kts 58°
2026-05-05 00:21 40.95460 14.17612 11425 ft 274 kts 58°
2026-05-05 00:21 40.96418 14.19737 11169 ft 272 kts 58°
2026-05-05 00:21 40.97391 14.21872 10910 ft 271 kts 58°
2026-05-05 00:22 40.98361 14.24009 10648 ft 269 kts 58°
2026-05-05 00:22 40.99306 14.26114 10391 ft 268 kts 58°
2026-05-05 00:22 41.00260 14.28244 10141 ft 266 kts 58°
2026-05-05 00:22 41.01218 14.30368 9993 ft 268 kts 58°
2026-05-05 00:23 41.02174 14.32481 9861 ft 266 kts 58°
2026-05-05 00:23 41.03111 14.34559 9733 ft 266 kts 58°
2026-05-05 00:23 41.04059 14.36667 9603 ft 266 kts 58°
2026-05-05 00:23 41.05004 14.38761 9473 ft 265 kts 58°
2026-05-05 00:24 41.05951 14.40855 9341 ft 262 kts 58°
2026-05-05 00:24 41.06870 14.42897 9208 ft 255 kts 59°
2026-05-05 00:24 41.07773 14.44898 9078 ft 253 kts 58°
2026-05-05 00:24 41.08717 14.46879 8947 ft 252 kts 57°
2026-05-05 00:25 41.09656 14.48811 8818 ft 252 kts 57°
2026-05-05 00:25 41.10592 14.50780 8687 ft 251 kts 58°
2026-05-05 00:25 41.11495 14.52713 8554 ft 244 kts 58°
2026-05-05 00:25 41.12385 14.54603 8422 ft 239 kts 58°
2026-05-05 00:26 41.13265 14.56453 8293 ft 239 kts 58°
2026-05-05 00:26 41.14162 14.58337 8161 ft 238 kts 58°
2026-05-05 00:26 41.15032 14.60186 8031 ft 238 kts 58°
2026-05-05 00:26 41.15904 14.62077 7897 ft 235 kts 59°
2026-05-05 00:27 41.16737 14.63888 7746 ft 230 kts 59°
2026-05-05 00:27 41.17577 14.65693 7581 ft 229 kts 59°
2026-05-05 00:27 41.18415 14.67494 7411 ft 229 kts 59°
2026-05-05 00:27 41.19243 14.69286 7236 ft 228 kts 59°
2026-05-05 00:28 41.20066 14.71078 7059 ft 227 kts 61°
2026-05-05 00:28 41.20626 14.73012 6958 ft 224 kts 83°
2026-05-05 00:28 41.20451 14.75034 6938 ft 218 kts 122°
2026-05-05 00:28 41.19423 14.76399 7016 ft 212 kts 152°
2026-05-05 00:29 41.18113 14.77322 7096 ft 213 kts 155°
2026-05-05 00:29 41.16810 14.78259 7071 ft 213 kts 152°
2026-05-05 00:29 41.16384 14.78597 7064 ft 213 kts 151°